Flag for Netherlands Weather past 2 weeks in Emmen, Netherlands

Now
59 °F

Partly sunny.


Feels Like: 58 °F
Forecast: 50 / 63 °F
Wind: 6 mph from West

Location: Meppen

Current Time: Jul 30, 2015 at 10:54:41 AM

Latest Report: Jul 30, 2015 at 10:00 AM


Visibility: 19 mi

Pressure: 29.89 "Hg

Humidity: 74%

Dew point: 50 °F

Location of EmmenLocation

Historic Weather in Emmen — Graph

°F

Emmen temperature yesterday

Maximum temperature yesterday: 60 °F (at 1:00 PM)
Minimum temperature yesterday: 53 °F (at 6:00 AM)
Average temperature yesterday: 56 °F

Past Weeks' High & Low Weather Summary

 TemperatureHumidityPressure
High82 °F (Jul 17, 3:00 PM)94% (Jul 16, 3:00 AM)30.11 "Hg (Jul 16, 3:00 AM)
Low49 °F (Jul 20, 6:00 AM)37% (Jul 16, 6:00 PM)29.38 "Hg (Jul 25, 4:00 PM)
Average63 °F74%29.84 "Hg
* Reported Jul 15 9:00 AM — Jul 30 9:00 AM, Emmen, Weather by CustomWeather, © 2015

Note: Actual official high and low records may vary slightly from our data, if they occured in-between our weather recording intervals... More about our weather records

Advertising

Emmen weather history for previous 24 hours

 ConditionsComfort  
Time TempWeatherWind HumidityBarometerVisibility
9:00 AM
Thu, Jul 30
57 °FPartly sunny.6 mph79%29.88 "Hg19 mi
8:00 AM54 °FSprinkles. Low clouds.5 mph85%29.87 "Hg16 mi
7:00 AM54 °FSprinkles. Low clouds.5 mph87%29.85 "Hg15 mi
6:00 AM54 °FCool.5 mph87%29.84 "Hg4 mi
4:00 AM54 °FCool.6 mph86%29.82 "Hg5 mi
3:00 AM53 °FCool.5 mph87%29.82 "Hg4 mi
1:00 AM54 °FCool.5 mph88%29.81 "Hg4 mi
12:00 AM55 °FCool.6 mph86%29.80 "Hg4 mi
10:00 PM
Wed, Jul 29
55 °FCool.6 mph85%29.77 "Hg4 mi
9:00 PM55 °FCool.6 mph87%29.75 "Hg4 mi
8:00 PM56 °FCool.8 mph82%29.74 "Hg4 mi
7:00 PM57 °FCool.9 mph80%29.71 "Hg4 mi
6:00 PM56 °FCool.7 mph83%29.70 "Hg6 mi
4:00 PM53 °FCool.5 mph82%29.70 "Hg5 mi
3:00 PM57 °FCool.6 mph85%29.68 "Hg6 mi
1:00 PM60 °FPartly sunny.8 mph67%29.66 "Hg22 mi
12:00 PM56 °FRain showers. Low clouds.9 mph75%29.67 "Hg9 mi
10:00 AM58 °FPartly sunny.6 mph77%29.67 "Hg25 mi
Weather by CustomWeather, © 2015

See weather overviewHow to use our weather pages